QPF
0.00 0.00 0.00 0.01 0.02 0.02 0.03 0.02 0.00 0.01 0.00 0.00 0.00 0.00 0.00 0.00 0.01 0.00 0.00 0.00 0.00 0.00 0.00 0.01 0.03 0.06 0.09 0.07 0.03 0.01 0.01 0.00 0.00 0.00 0.00 0.00 0.00 0.00 0.00 0.00 0.00 0.00 0.00 0.00
0.00 0.00 0.01 0.04 0.06 0.04 0.02 0.01 0.00 0.00 0.00 0.00 0.00 0.00 0.00 0.00 0.01 0.01 0.00 0.00 0.00 0.00 0.00 0.00 0.00 0.01 0.04 0.05 0.04 0.02 0.01 0.01 0.01 0.01 0.00 0.00 0.00 0.00 0.00 0.00 0.00 0.00 0.00 0.00
0.00 0.01 0.02 0.05 0.08 0.11 0.08 0.03 0.00 0.00 0.00 0.00 0.00 0.00 0.00 0.00 0.01 0.01 0.01 0.00 0.00 0.00 0.00 0.00 0.00 0.00 0.01 0.02 0.02 0.02 0.02 0.02 0.02 0.02 0.01 0.01 0.01 0.01 0.00 0.00 0.00 0.00 0.00 0.00
0.01 0.02 0.06 0.06 0.02 0.02 0.02 0.01 0.00 0.00 0.00 0.00 0.00 0.00 0.00 0.00 0.01 0.02 0.01 0.00 0.00 0.01 0.01 0.00 0.00 0.00 0.00 0.01 0.02 0.02 0.04 0.07 0.08 0.07 0.04 0.03 0.03 0.02 0.01 0.01 0.00 0.00 0.00 0.00
0.01 0.03 0.05 0.05 0.02 0.00 0.00 0.00 0.00 0.00 0.00 0.00 0.00 0.00 0.00 0.00 0.00 0.01 0.02 0.02 0.01 0.01 0.02 0.02 0.01 0.00 0.00 0.00 0.01 0.03 0.05 0.08 0.12 0.12 0.06 0.03 0.03 0.01 0.01 0.01 0.01 0.00 0.00 0.00
0.01 0.04 0.06 0.02 0.00 0.00 0.00 0.00 0.00 0.00 0.00 0.01 0.01 0.01 0.00 0.00 0.00 0.00 0.02 0.06 0.05 0.03 0.04 0.05 0.02 0.00 0.00 0.00 0.01 0.03 0.05 0.08 0.11 0.10 0.06 0.02 0.01 0.00 0.00 0.00 0.00 0.00 0.00 0.00
0.00 0.03 0.03 0.00 0.00 0.00 0.00 0.00 0.00 0.00 0.00 0.00 0.01 0.01 0.01 0.00 0.00 0.00 0.01 0.05 0.07 0.07 0.09 0.07 0.04 0.02 0.02 0.02 0.03 0.05 0.07 0.06 0.09 0.10 0.04 0.01 0.00 0.00 0.00 0.00 0.00 0.00 0.00 0.00
0.00 0.03 0.02 0.00 0.00 0.00 0.00 0.00 0.00 0.00 0.00 0.00 0.00 0.01 0.02 0.02 0.01 0.00 0.01 0.03 0.09 0.13 0.13 0.10 0.09 0.10 0.09 0.08 0.08 0.08 0.07 0.06 0.06 0.05 0.02 0.02 0.02 0.01 0.00 0.00 0.00 0.00 0.00 0.00
0.00 0.00 0.00 0.00 0.00 0.00 0.00 0.00 0.00 0.00 0.00 0.00 0.00 0.00 0.01 0.01 0.02 0.04 0.05 0.04 0.06 0.09 0.08 0.08 0.09 0.09 0.12 0.16 0.11 0.07 0.05 0.05 0.04 0.03 0.02 0.02 0.02 0.03 0.02 0.01 0.01 0.01 0.01 0.00
0.00 0.00 0.00 0.00 0.00 0.00 0.00 0.00 0.00 0.00 0.00 0.00 0.00 0.00 0.00 0.00 0.01 0.03 0.03 0.01 0.01 0.01 0.01 0.02 0.03 0.05 0.07 0.12 0.10 0.05 0.04 0.06 0.07 0.04 0.02 0.02 0.01 0.01 0.03 0.04 0.04 0.05 0.04 0.02
0.00 0.00 0.00 0.00 0.00 0.00 0.00 0.00 0.00 0.00 0.00 0.00 0.00 0.00 0.00 0.00 0.00 0.01 0.01 0.00 0.00 0.00 0.00 0.01 0.02 0.02 0.03 0.04 0.06 0.06 0.04 0.09 0.14 0.10 0.05 0.03 0.02 0.01 0.02 0.04 0.06 0.07 0.07 0.04
0.00 0.00 0.00 0.00 0.00 0.00 0.00 0.00 0.00 0.00 0.00 0.00 0.00 0.00 0.00 0.00 0.00 0.00 0.00 0.00 0.00 0.00 0.00 0.00 0.00 0.01 0.03 0.04 0.05 0.07 0.07 0.06 0.07 0.07 0.07 0.05 0.02 0.01 0.01 0.01 0.01 0.02 0.03 0.03
0.00 0.00 0.00 0.00 0.00 0.00 0.00 0.00 0.00 0.00 0.00 0.00 0.00 0.00 0.00 0.00 0.00 0.00 0.00 0.00 0.00 0.00 0.00 0.00 0.00 0.00 0.01 0.01 0.01 0.02 0.02 0.02 0.01 0.02 0.02 0.01 0.01 0.02 0.02 0.01 0.01 0.00 0.00 0.00
0.00 0.00 0.00 0.00 0.00 0.00 0.00 0.00 0.00 0.00 0.00 0.00 0.00 0.00 0.00 0.00 0.00 0.00 0.00 0.00 0.00 0.00 0.00 0.00 0.00 0.00 0.00 0.00 0.00 0.00 0.00 0.00 0.01 0.01 0.01 0.01 0.00 0.01 0.01 0.01 0.01 0.00 0.00 0.00
0.00 0.00 0.00 0.00 0.00 0.00 0.00 0.00 0.00 0.00 0.00 0.00 0.00 0.00 0.00 0.00 0.00 0.00 0.00 0.00 0.00 0.00 0.00 0.00 0.00 0.00 0.00 0.00 0.00 0.00 0.00 0.00 0.00 0.00 0.00 0.00 0.00 0.00 0.00 0.00 0.00 0.00 0.00 0.00
0.00 0.00 0.00 0.00 0.00 0.00 0.00 0.00 0.00 0.00 0.00 0.00 0.00 0.00 0.00 0.00 0.00 0.00 0.00 0.00 0.00 0.00 0.00 0.00 0.00 0.00 0.00 0.00 0.00 0.00 0.00 0.00 0.00 0.00 0.00 0.00 0.00 0.00 0.00 0.00 0.00 0.00 0.00 0.00
0.00 0.00 0.00 0.00 0.00 0.00 0.00 0.00 0.00 0.00 0.00 0.00 0.00 0.00 0.00 0.00 0.00 0.00 0.00 0.00 0.00 0.00 0.00 0.00 0.00 0.00 0.00 0.00 0.00 0.00 0.00 0.00 0.00 0.00 0.00 0.00 0.00 0.00 0.00 0.00 0.00 0.00 0.00 0.00
0.00 0.00 0.00 0.00 0.00 0.00 0.00 0.00 0.00 0.00 0.00 0.00 0.00 0.00 0.00 0.00 0.00 0.00 0.00 0.00 0.00 0.00 0.00 0.00 0.00 0.00 0.00 0.00 0.00 0.00 0.00 0.00 0.00 0.00 0.00 0.00 0.00 0.00 0.00 0.00 0.00 0.00 0.00 0.00
0.00 0.00 0.00 0.00 0.00 0.00 0.00 0.00 0.00 0.00 0.00 0.00 0.00 0.00 0.00 0.00 0.00 0.00 0.00 0.00 0.00 0.00 0.00 0.00 0.00 0.00 0.00 0.00 0.00 0.00 0.00 0.00 0.00 0.00 0.00 0.00 0.00 0.00 0.00 0.00 0.00 0.00 0.00 0.00
0.00 0.00 0.00 0.00 0.00 0.00 0.00 0.00 0.00 0.00 0.00 0.00 0.00 0.00 0.00 0.00 0.00 0.00 0.00 0.00 0.00 0.00 0.00 0.00 0.00 0.00 0.00 0.00 0.00 0.00 0.00 0.00 0.00 0.00 0.00 0.00 0.00 0.00 0.00 0.00 0.00 0.00 0.00 0.00
0.00 0.00 0.00 0.00 0.00 0.00 0.00 0.00 0.00 0.00 0.00 0.00 0.00 0.00 0.00 0.00 0.00 0.00 0.00 0.00 0.00 0.00 0.00 0.00 0.00 0.00 0.00 0.00 0.00 0.00 0.00 0.00 0.00 0.00 0.00 0.00 0.00 0.00 0.00 0.00 0.00 0.00 0.00 0.00
0.00 0.00 0.00 0.00 0.00 0.00 0.00 0.00 0.00 0.00 0.00 0.00 0.00 0.00 0.00 0.00 0.00 0.00 0.00 0.00 0.00 0.00 0.00 0.00 0.00 0.00 0.00 0.00 0.00 0.00 0.00 0.00 0.00 0.00 0.00 0.00 0.00 0.00 0.00 0.00 0.00 0.00 0.00 0.00
0.00 0.00 0.00 0.00 0.00 0.00 0.00 0.00 0.00 0.00 0.00 0.00 0.00 0.00 0.00 0.00 0.00 0.00 0.00 0.00 0.00 0.00 0.00 0.00 0.00 0.00 0.00 0.00 0.00 0.00 0.00 0.00 0.00 0.00 0.00 0.00 0.00 0.00 0.00 0.00 0.00 0.00 0.00 0.00
0.00 0.00 0.00 0.00 0.00 0.00 0.00 0.00 0.00 0.00 0.00 0.00 0.00 0.00 0.00 0.00 0.00 0.00 0.00 0.00 0.00 0.00 0.00 0.00 0.00 0.00 0.00 0.00 0.00 0.00 0.00 0.00 0.00 0.00 0.00 0.00 0.00 0.00 0.00 0.00 0.00 0.00 0.00 0.00
0.00 0.00 0.00 0.00 0.00 0.00 0.00 0.00 0.00 0.00 0.00 0.00 0.00 0.00 0.00 0.00 0.00 0.00 0.00 0.00 0.00 0.00 0.00 0.00 0.00 0.00 0.00 0.00 0.00 0.00 0.00 0.00 0.00 0.00 0.00 0.00 0.00 0.00 0.00 0.00 0.00 0.00 0.00 0.00
0.00 0.00 0.00 0.00 0.00 0.00 0.00 0.00 0.00 0.00 0.00 0.00 0.00 0.00 0.00 0.00 0.00 0.00 0.00 0.00 0.00 0.00 0.00 0.00 0.00 0.00 0.00 0.00 0.00 0.00 0.00 0.00 0.00 0.00 0.00 0.00 0.00 0.00 0.00 0.01 0.00 0.00 0.00 0.00
0.00 0.00 0.00 0.00 0.00 0.00 0.00 0.00 0.00 0.00 0.00 0.00 0.00 0.00 0.00 0.00 0.00 0.00 0.00 0.00 0.00 0.00 0.00 0.00 0.00 0.00 0.00 0.00 0.00 0.00 0.00 0.00 0.00 0.00 0.00 0.00 0.00 0.00 0.00 0.00 0.00 0.00 0.00 0.00
MSLP
1014.08 1014.46 1014.87 1015.29 1015.71 1016.09 1016.44 1016.74 1016.99 1017.21 1017.39 1017.55 1017.70 1017.83 1017.93 1018.00 1018.03 1017.99 1017.89 1017.72 1017.49 1017.23 1016.94 1016.66 1016.42 1016.22 1016.07 1015.98 1015.95 1015.95 1015.98 1016.01 1016.04 1016.06 1016.07 1016.07 1016.06 1016.05 1016.04 1016.03 1016.02 1016.00 1015.96 1015.90
1014.69 1015.08 1015.46 1015.82 1016.14 1016.42 1016.66 1016.88 1017.08 1017.27 1017.47 1017.67 1017.88 1018.07 1018.22 1018.32 1018.35 1018.29 1018.13 1017.91 1017.62 1017.30 1016.98 1016.70 1016.47 1016.32 1016.23 1016.21 1016.23 1016.28 1016.33 1016.36 1016.37 1016.36 1016.32 1016.27 1016.22 1016.18 1016.16 1016.16 1016.17 1016.18 1016.19 1016.18
1015.36 1015.74 1016.08 1016.37 1016.61 1016.80 1016.97 1017.11 1017.27 1017.44 1017.64 1017.87 1018.10 1018.31 1018.48 1018.57 1018.57 1018.47 1018.27 1017.98 1017.65 1017.30 1016.98 1016.71 1016.52 1016.42 1016.40 1016.44 1016.52 1016.60 1016.67 1016.70 1016.69 1016.64 1016.57 1016.48 1016.40 1016.34 1016.31 1016.32 1016.35 1016.40 1016.46 1016.50
1016.04 1016.37 1016.65 1016.86 1017.03 1017.15 1017.24 1017.34 1017.46 1017.61 1017.81 1018.04 1018.28 1018.49 1018.65 1018.72 1018.69 1018.55 1018.31 1017.99 1017.63 1017.28 1016.97 1016.74 1016.60 1016.55 1016.59 1016.68 1016.80 1016.91 1016.98 1017.01 1016.97 1016.90 1016.79 1016.67 1016.57 1016.51 1016.49 1016.51 1016.57 1016.65 1016.74 1016.82
1016.64 1016.89 1017.08 1017.22 1017.30 1017.36 1017.40 1017.45 1017.55 1017.69 1017.88 1018.10 1018.33 1018.54 1018.69 1018.74 1018.69 1018.53 1018.28 1017.95 1017.60 1017.27 1016.99 1016.80 1016.71 1016.71 1016.79 1016.92 1017.06 1017.17 1017.24 1017.25 1017.20 1017.10 1016.97 1016.85 1016.74 1016.68 1016.67 1016.72 1016.80 1016.90 1017.01 1017.10
1017.08 1017.23 1017.33 1017.38 1017.39 1017.38 1017.38 1017.40 1017.47 1017.60 1017.79 1018.01 1018.24 1018.45 1018.59 1018.65 1018.61 1018.46 1018.22 1017.92 1017.60 1017.31 1017.08 1016.93 1016.88 1016.91 1017.01 1017.14 1017.28 1017.38 1017.43 1017.42 1017.35 1017.24 1017.10 1016.98 1016.89 1016.84 1016.85 1016.91 1017.00 1017.12 1017.23 1017.31
1017.31 1017.35 1017.35 1017.32 1017.27 1017.21 1017.17 1017.17 1017.23 1017.36 1017.55 1017.78 1018.02 1018.24 1018.40 1018.48 1018.47 1018.36 1018.17 1017.92 1017.66 1017.42 1017.24 1017.13 1017.09 1017.13 1017.23 1017.34 1017.45 1017.53 1017.55 1017.51 1017.43 1017.31 1017.18 1017.07 1017.00 1016.97 1017.00 1017.07 1017.17 1017.27 1017.37 1017.43
1017.30 1017.24 1017.17 1017.07 1016.96 1016.87 1016.81 1016.81 1016.87 1017.01 1017.21 1017.45 1017.71 1017.96 1018.16 1018.29 1018.33 1018.28 1018.16 1017.99 1017.80 1017.61 1017.47 1017.38 1017.36 1017.38 1017.44 1017.52 1017.58 1017.61 1017.60 1017.54 1017.45 1017.33 1017.22 1017.13 1017.08 1017.07 1017.11 1017.18 1017.27 1017.36 1017.43 1017.46
1017.05 1016.93 1016.79 1016.66 1016.53 1016.43 1016.38 1016.38 1016.46 1016.61 1016.83 1017.10 1017.39 1017.67 1017.92 1018.11 1018.22 1018.25 1018.21 1018.12 1017.99 1017.87 1017.76 1017.68 1017.64 1017.63 1017.65 1017.67 1017.68 1017.66 1017.61 1017.53 1017.44 1017.33 1017.24 1017.17 1017.15 1017.16 1017.20 1017.27 1017.34 1017.40 1017.43 1017.43
1016.59 1016.44 1016.29 1016.16 1016.04 1015.96 1015.93 1015.96 1016.06 1016.24 1016.49 1016.78 1017.10 1017.43 1017.73 1017.97 1018.15 1018.27 1018.31 1018.29 1018.23 1018.15 1018.06 1017.98 1017.92 1017.87 1017.84 1017.80 1017.75 1017.69 1017.61 1017.52 1017.43 1017.34 1017.27 1017.23 1017.23 1017.25 1017.29 1017.35 1017.40 1017.43 1017.43 1017.39
1015.98 1015.84 1015.72 1015.61 1015.54 1015.50 1015.52 1015.59 1015.73 1015.94 1016.21 1016.53 1016.87 1017.23 1017.57 1017.87 1018.11 1018.29 1018.40 1018.45 1018.44 1018.39 1018.33 1018.24 1018.16 1018.07 1017.99 1017.90 1017.81 1017.72 1017.62 1017.53 1017.45 1017.39 1017.35 1017.34 1017.35 1017.39 1017.43 1017.47 1017.49 1017.49 1017.46 1017.40
1015.26 1015.17 1015.11 1015.07 1015.06 1015.09 1015.17 1015.29 1015.47 1015.70 1015.99 1016.32 1016.69 1017.06 1017.42 1017.76 1018.04 1018.27 1018.43 1018.53 1018.57 1018.55 1018.49 1018.41 1018.31 1018.20 1018.08 1017.97 1017.86 1017.76 1017.67 1017.60 1017.54 1017.51 1017.51 1017.52 1017.55 1017.59 1017.63 1017.65 1017.65 1017.63 1017.58 1017.50
1014.49 1014.47 1014.49 1014.53 1014.61 1014.72 1014.86 1015.03 1015.25 1015.50 1015.80 1016.13 1016.49 1016.87 1017.24 1017.58 1017.89 1018.15 1018.35 1018.48 1018.55 1018.56 1018.52 1018.45 1018.34 1018.23 1018.11 1018.00 1017.89 1017.81 1017.75 1017.71 1017.70 1017.71 1017.74 1017.78 1017.83 1017.88 1017.90 1017.92 1017.90 1017.86 1017.79 1017.71
1013.67 1013.74 1013.85 1014.00 1014.17 1014.36 1014.56 1014.78 1015.02 1015.29 1015.59 1015.91 1016.25 1016.61 1016.97 1017.31 1017.63 1017.90 1018.12 1018.27 1018.37 1018.41 1018.39 1018.34 1018.26 1018.16 1018.07 1017.98 1017.92 1017.88 1017.86 1017.88 1017.91 1017.97 1018.04 1018.11 1018.17 1018.22 1018.25 1018.25 1018.22 1018.17 1018.10 1018.02
1012.82 1012.98 1013.19 1013.43 1013.69 1013.96 1014.22 1014.48 1014.75 1015.02 1015.31 1015.61 1015.93 1016.26 1016.59 1016.92 1017.23 1017.50 1017.73 1017.90 1018.02 1018.09 1018.11 1018.09 1018.05 1018.00 1017.96 1017.93 1017.92 1017.94 1017.99 1018.06 1018.16 1018.26 1018.37 1018.47 1018.54 1018.60 1018.62 1018.61 1018.57 1018.52 1018.45 1018.37
1011.94 1012.19 1012.49 1012.81 1013.15 1013.49 1013.81 1014.11 1014.39 1014.67 1014.95 1015.23 1015.52 1015.82 1016.12 1016.43 1016.72 1016.99 1017.22 1017.41 1017.56 1017.65 1017.72 1017.75 1017.76 1017.77 1017.79 1017.83 1017.89 1017.98 1018.10 1018.24 1018.39 1018.54 1018.68 1018.80 1018.89 1018.95 1018.96 1018.95 1018.91 1018.85 1018.79 1018.73
1011.02 1011.34 1011.72 1012.13 1012.54 1012.93 1013.30 1013.64 1013.94 1014.23 1014.50 1014.76 1015.03 1015.31 1015.59 1015.88 1016.15 1016.41 1016.65 1016.86 1017.02 1017.16 1017.26 1017.35 1017.42 1017.50 1017.59 1017.70 1017.84 1018.00 1018.18 1018.38 1018.58 1018.77 1018.93 1019.07 1019.16 1019.21 1019.23 1019.21 1019.17 1019.11 1019.05 1019.00
1010.08 1010.47 1010.92 1011.39 1011.85 1012.30 1012.71 1013.08 1013.41 1013.71 1013.98 1014.24 1014.50 1014.77 1015.04 1015.31 1015.58 1015.84 1016.08 1016.30 1016.49 1016.66 1016.81 1016.94 1017.07 1017.21 1017.37 1017.55 1017.75 1017.97 1018.21 1018.45 1018.68 1018.89 1019.07 1019.21 1019.31 1019.36 1019.37 1019.34 1019.30 1019.25 1019.19 1019.15
1009.16 1009.60 1010.09 1010.61 1011.13 1011.61 1012.06 1012.46 1012.82 1013.14 1013.43 1013.70 1013.96 1014.23 1014.50 1014.77 1015.04 1015.30 1015.55 1015.78 1015.99 1016.19 1016.37 1016.55 1016.73 1016.92 1017.13 1017.37 1017.62 1017.88 1018.15 1018.42 1018.67 1018.89 1019.08 1019.21 1019.30 1019.34 1019.34 1019.31 1019.27 1019.22 1019.17 1019.14
1008.30 1008.77 1009.30 1009.85 1010.39 1010.91 1011.39 1011.81 1012.20 1012.54 1012.85 1013.14 1013.42 1013.70 1013.98 1014.26 1014.53 1014.80 1015.06 1015.31 1015.54 1015.76 1015.97 1016.18 1016.40 1016.63 1016.88 1017.15 1017.43 1017.72 1018.01 1018.29 1018.54 1018.76 1018.93 1019.05 1019.13 1019.16 1019.16 1019.13 1019.08 1019.04 1019.00 1018.97
1007.56 1008.05 1008.58 1009.14 1009.70 1010.22 1010.71 1011.15 1011.56 1011.92 1012.25 1012.57 1012.87 1013.17 1013.46 1013.76 1014.04 1014.33 1014.60 1014.85 1015.10 1015.34 1015.58 1015.81 1016.06 1016.32 1016.59 1016.87 1017.17 1017.47 1017.77 1018.04 1018.28 1018.49 1018.65 1018.76 1018.82 1018.84 1018.83 1018.80 1018.76 1018.72 1018.69 1018.67
1007.00 1007.47 1007.99 1008.53 1009.06 1009.57 1010.05 1010.49 1010.90 1011.27 1011.62 1011.95 1012.28 1012.60 1012.91 1013.22 1013.53 1013.82 1014.11 1014.38 1014.65 1014.91 1015.16 1015.42 1015.68 1015.95 1016.24 1016.54 1016.84 1017.14 1017.42 1017.68 1017.91 1018.10 1018.24 1018.34 1018.39 1018.41 1018.40 1018.37 1018.34 1018.31 1018.29 1018.28
1006.61 1007.05 1007.52 1008.01 1008.50 1008.96 1009.41 1009.82 1010.21 1010.58 1010.93 1011.28 1011.61 1011.95 1012.28 1012.61 1012.94 1013.26 1013.56 1013.85 1014.14 1014.41 1014.69 1014.96 1015.24 1015.53 1015.83 1016.13 1016.43 1016.72 1016.99 1017.24 1017.45 1017.62 1017.75 1017.84 1017.89 1017.90 1017.90 1017.88 1017.86 1017.84 1017.83 1017.83
1006.39 1006.76 1007.16 1007.57 1007.98 1008.38 1008.76 1009.13 1009.48 1009.83 1010.17 1010.51 1010.86 1011.21 1011.56 1011.92 1012.26 1012.60 1012.93 1013.25 1013.56 1013.86 1014.16 1014.45 1014.75 1015.05 1015.35 1015.65 1015.95 1016.23 1016.49 1016.72 1016.92 1017.08 1017.20 1017.28 1017.33 1017.36 1017.36 1017.36 1017.35 1017.35 1017.35 1017.36
1006.26 1006.55 1006.85 1007.17 1007.48 1007.79 1008.09 1008.40 1008.70 1009.01 1009.33 1009.67 1010.02 1010.39 1010.76 1011.14 1011.51 1011.88 1012.24 1012.59 1012.93 1013.26 1013.58 1013.89 1014.21 1014.52 1014.83 1015.14 1015.43 1015.70 1015.95 1016.17 1016.36 1016.51 1016.63 1016.71 1016.76 1016.80 1016.82 1016.83 1016.85 1016.86 1016.88 1016.90
1006.13 1006.32 1006.52 1006.72 1006.93 1007.14 1007.37 1007.60 1007.85 1008.13 1008.44 1008.77 1009.13 1009.52 1009.92 1010.33 1010.74 1011.14 1011.54 1011.93 1012.30 1012.66 1013.00 1013.34 1013.68 1014.00 1014.31 1014.62 1014.90 1015.17 1015.41 1015.62 1015.80 1015.94 1016.05 1016.14 1016.20 1016.25 1016.29 1016.32 1016.35 1016.38 1016.41 1016.44
1005.87 1005.96 1006.06 1006.16 1006.28 1006.40 1006.55 1006.74 1006.96 1007.22 1007.52 1007.86 1008.25 1008.66 1009.10 1009.55 1010.01 1010.46 1010.90 1011.32 1011.73 1012.12 1012.49 1012.85 1013.19 1013.52 1013.84 1014.13 1014.41 1014.67 1014.89 1015.09 1015.26 1015.39 1015.50 1015.59 1015.66 1015.72 1015.77 1015.82 1015.87 1015.92 1015.96 1016.00
Thickness
5626 5638 5635 5629 5628 5626 5622 5619 5611 5608 5603 5601 5604 5604 5604 5605 5609 5612 5614 5615 5617 5617 5618 5620 5621 5622 5623 5625 5626 5627 5628 5628 5629 5631 5633 5634 5636 5636 5637 5636 5636 5635 5635 5635
5611 5617 5617 5610 5612 5615 5612 5613 5608 5601 5594 5597 5596 5594 5594 5595 5599 5601 5603 5605 5606 5607 5608 5609 5610 5611 5612 5612 5614 5615 5617 5618 5620 5621 5622 5624 5626 5626 5626 5626 5625 5625 5624 5624
5598 5609 5602 5585 5592 5591 5588 5593 5596 5589 5589 5590 5587 5586 5585 5586 5588 5589 5591 5593 5595 5597 5598 5597 5597 5597 5597 5598 5600 5602 5604 5607 5608 5609 5611 5612 5615 5616 5617 5618 5617 5616 5615 5615
5586 5590 5573 5575 5591 5594 5585 5583 5588 5585 5582 5582 5582 5581 5579 5577 5577 5576 5577 5579 5581 5584 5587 5588 5587 5586 5586 5586 5587 5589 5591 5593 5596 5597 5599 5601 5603 5605 5608 5609 5608 5607 5606 5608
5573 5569 5567 5574 5584 5587 5578 5572 5580 5578 5578 5578 5578 5574 5572 5571 5568 5565 5565 5566 5568 5570 5573 5576 5577 5576 5576 5576 5576 5576 5577 5579 5582 5585 5587 5588 5590 5594 5597 5597 5598 5598 5599 5599
5572 5563 5559 5567 5586 5592 5579 5566 5578 5578 5575 5575 5571 5563 5564 5566 5561 5559 5558 5558 5559 5561 5563 5565 5566 5567 5566 5566 5566 5565 5566 5568 5571 5573 5576 5579 5581 5584 5587 5588 5589 5590 5590 5591
5564 5557 5562 5577 5587 5587 5567 5564 5575 5575 5571 5568 5563 5560 5561 5560 5556 5554 5552 5552 5553 5554 5555 5556 5558 5559 5559 5558 5558 5558 5559 5561 5564 5566 5569 5572 5573 5575 5578 5578 5578 5579 5581 5582
5554 5549 5552 5577 5580 5570 5566 5572 5573 5570 5566 5563 5561 5561 5557 5554 5551 5549 5547 5547 5547 5549 5549 5551 5552 5553 5553 5552 5552 5552 5553 5556 5558 5560 5563 5565 5565 5566 5567 5567 5567 5568 5569 5571
5556 5554 5567 5577 5576 5575 5571 5569 5571 5566 5563 5559 5556 5554 5552 5549 5546 5544 5542 5540 5540 5541 5542 5544 5545 5547 5546 5546 5548 5549 5549 5550 5551 5553 5554 5555 5556 5556 5556 5556 5557 5557 5558 5559
5564 5568 5571 5574 5574 5572 5571 5569 5569 5564 5559 5555 5550 5548 5545 5542 5538 5536 5534 5533 5532 5533 5535 5536 5538 5539 5540 5541 5543 5545 5544 5544 5544 5545 5546 5546 5548 5549 5549 5549 5549 5550 5549 5550
5565 5570 5569 5569 5570 5569 5569 5567 5564 5559 5556 5551 5546 5542 5539 5535 5532 5530 5528 5527 5526 5526 5527 5529 5530 5531 5533 5535 5537 5536 5537 5538 5540 5540 5539 5539 5539 5539 5540 5541 5543 5543 5542 5541
5564 5570 5565 5565 5569 5571 5567 5562 5559 5556 5552 5548 5544 5539 5535 5531 5529 5527 5526 5524 5522 5522 5522 5522 5522 5523 5524 5526 5528 5529 5529 5530 5532 5533 5533 5531 5528 5528 5530 5531 5532 5533 5534 5533
5584 5583 5579 5578 5574 5573 5568 5563 5560 5556 5552 5547 5543 5539 5534 5529 5527 5525 5524 5521 5519 5517 5517 5517 5516 5515 5516 5517 5519 5520 5519 5519 5520 5521 5521 5519 5518 5518 5518 5519 5519 5520 5521 5523
5596 5591 5584 5581 5575 5574 5571 5567 5563 5558 5554 5549 5544 5539 5534 5529 5526 5524 5522 5520 5517 5514 5512 5511 5509 5508 5510 5511 5511 5510 5510 5510 5510 5509 5509 5507 5506 5505 5504 5504 5504 5505 5507 5508
5600 5596 5588 5586 5580 5576 5572 5566 5559 5554 5552 5548 5543 5539 5534 5529 5526 5523 5521 5519 5516 5513 5510 5507 5505 5503 5505 5504 5503 5501 5500 5498 5498 5498 5497 5495 5493 5491 5490 5490 5490 5490 5491 5493
5603 5599 5593 5586 5581 5577 5572 5566 5559 5554 5551 5547 5542 5539 5536 5531 5526 5522 5518 5516 5512 5508 5506 5504 5502 5501 5501 5498 5495 5492 5489 5489 5485 5481 5480 5478 5476 5476 5475 5475 5476 5476 5476 5477
5603 5596 5592 5587 5583 5578 5574 5569 5564 5560 5554 5548 5543 5539 5535 5529 5523 5519 5516 5514 5512 5508 5504 5501 5499 5498 5495 5491 5487 5483 5480 5478 5476 5470 5466 5464 5462 5461 5460 5460 5460 5459 5459 5460
5617 5610 5603 5596 5589 5582 5575 5572 5567 5562 5556 5552 5546 5539 5534 5528 5522 5518 5516 5513 5510 5506 5503 5501 5498 5494 5489 5484 5480 5475 5471 5467 5463 5459 5456 5454 5452 5450 5448 5447 5447 5445 5443 5443
5616 5611 5606 5602 5597 5589 5581 5574 5569 5563 5559 5554 5547 5540 5535 5529 5524 5520 5515 5509 5506 5502 5500 5499 5496 5491 5484 5479 5475 5470 5465 5461 5456 5452 5448 5445 5442 5438 5436 5433 5431 5429 5428 5426
5619 5613 5608 5603 5599 5592 5585 5578 5572 5565 5560 5555 5548 5540 5534 5530 5525 5520 5514 5509 5506 5504 5502 5497 5492 5486 5480 5475 5472 5466 5460 5455 5449 5444 5439 5435 5431 5427 5423 5420 5416 5414 5412 5410
5618 5613 5608 5602 5597 5593 5588 5582 5574 5566 5560 5555 5547 5540 5535 5530 5526 5520 5513 5508 5508 5505 5501 5496 5489 5483 5477 5471 5467 5460 5454 5447 5440 5434 5429 5425 5421 5416 5412 5408 5405 5401 5398 5396
5615 5612 5608 5603 5596 5590 5586 5581 5574 5567 5560 5554 5548 5542 5535 5529 5524 5519 5515 5512 5511 5507 5499 5492 5486 5480 5474 5468 5460 5453 5447 5440 5433 5426 5420 5415 5409 5404 5399 5396 5392 5389 5386 5384
5612 5610 5606 5601 5595 5589 5583 5578 5573 5567 5560 5554 5548 5541 5535 5530 5526 5520 5514 5514 5510 5505 5497 5490 5483 5477 5471 5463 5454 5447 5439 5432 5425 5418 5411 5404 5399 5393 5388 5385 5381 5379 5377 5375
5608 5605 5602 5598 5592 5584 5577 5572 5569 5565 5560 5555 5550 5544 5538 5531 5525 5523 5520 5517 5510 5502 5494 5486 5480 5473 5465 5457 5449 5442 5435 5428 5421 5414 5406 5397 5390 5385 5380 5376 5372 5370 5369 5368
5605 5602 5598 5592 5586 5581 5576 5570 5565 5559 5555 5551 5547 5544 5540 5535 5529 5523 5517 5512 5505 5497 5489 5482 5476 5469 5461 5453 5446 5439 5432 5425 5417 5409 5399 5390 5383 5377 5373 5369 5366 5363 5362 5360
5600 5596 5594 5591 5588 5583 5576 5569 5563 5557 5552 5547 5545 5542 5538 5534 5529 5522 5515 5509 5501 5493 5485 5476 5470 5463 5457 5450 5442 5435 5427 5420 5411 5402 5393 5385 5378 5372 5367 5364 5361 5359 5357 5356
5595 5593 5590 5587 5585 5582 5578 5572 5566 5560 5555 5550 5545 5542 5538 5532 5525 5519 5512 5504 5496 5489 5481 5474 5466 5459 5452 5444 5436 5429 5421 5414 5406 5397 5388 5381 5375 5369 5364 5361 5357 5355 5353 5351